1500710401.26,3701,21.81,74368.0,19.85,-14.83,-15.89,0,*76
1500710402.45,3702,21.81,74368.0,19.87,-14.69,-15.95,0,*7E
1500710403.66,3703,21.81,74370.3,19.87,-17.03,-18.25,0,*76
1500710404.93,3704,21.81,74370.5,19.85,-17.55,-18.89,0,*76
1500710406.18,3705,21.81,74370.3,19.85,-16.65,-17.83,0,*70
1500710407.37,3706,21.81,74370.3,19.87,-15.95,-17.31,0,*74
1500710408.59,3707,21.81,74366.5,19.85,-16.45,-17.69,0,*74
1500710409.79,3708,21.81,74370.0,19.87,-15.15,-16.37,0,*75
1500710411.01,3709,21.81,74368.0,19.87,-14.65,-15.81,0,*7C
1500710412.26,3710,21.81,74368.5,19.89,-15.07,-16.27,0,*70
1500710413.47,3711,21.81,74368.0,19.91,-15.25,-16.51,0,*79
1500710414.72,3712,21.81,74368.0,19.89,-15.39,-16.41,0,*7F
1500710416.0,3713,21.81,74366.3,19.89,-15.85,-17.21,0,*7E
1500710417.22,3714,21.81,74370.5,19.91,-16.03,-17.25,0,*79
1500710418.44,3715,21.81,74368.0,19.89,-17.87,-19.17,0,*73
1500710419.66,3716,21.81,74370.0,19.87,-18.11,-19.31,0,*7A
1500710420.89,3717,21.81,74368.5,19.87,-18.25,-19.57,0,*7C
1500710422.13,3718,21.81,74366.0,19.85,-18.59,-19.75,0,*7A
1500710423.39,3719,21.81,74366.0,19.81,-17.45,-18.69,0,*71
1500710424.63,3720,21.81,74364.5,19.83,-16.23,-17.55,0,*78
1500710425.87,3721,21.81,74364.5,19.83,-17.25,-18.59,0,*7D
1500710427.12,3722,21.81,74366.3,19.83,-16.27,-17.59,0,*72
1500710428.4,3723,21.81,74360.0,19.81,-17.45,-18.93,0,*7D
1500710429.63,3724,21.81,74360.5,19.81,-18.79,-20.05,0,*7E
1500710430.85,3725,21.81,74356.3,19.79,-19.07,-20.49,0,*78
1500710432.09,3726,21.81,74356.0,19.77,-20.05,-21.53,0,*77
1500710433.33,3727,21.81,74356.0,19.71,-19.27,-20.73,0,*79
1500710434.55,3728,21.81,74354.5,19.71,-20.29,-21.83,0,*7C
1500710435.75,3729,21.81,74356.5,19.67,-19.17,-20.69,0,*78
1500710436.98,3730,21.81,74352.5,19.67,-18.69,-20.19,0,*7F
1500710438.23,3731,21.81,74358.3,19.65,-18.55,-19.91,0,*79
1500710439.45,3732,21.81,74358.5,19.61,-18.79,-20.19,0,*7A
1500710440.68,3733,21.81,74358.3,19.61,-18.79,-20.35,0,*75
1500710441.95,3734,21.81,74356.0,19.59,-18.35,-19.65,0,*7E
1500710443.17,3735,21.81,74358.5,19.59,-18.83,-20.25,0,*7C
1500710444.37,3736,21.81,74358.3,19.57,-18.83,-20.25,0,*71
1500710445.58,3737,21.81,74360.3,19.57,-19.17,-20.59,0,*77
1500710446.8,3738,21.81,74362.8,19.53,-20.43,-21.97,0,*74
1500710448.0,3739,21.81,74360.3,19.49,-19.75,-21.43,0,*78
1500710449.25,3740,21.81,74360.5,19.47,-21.57,-23.09,0,*7F
1500710450.5,3741,21.81,74360.5,19.43,-20.53,-22.03,0,*74
1500710451.7,3742,21.81,74362.0,19.41,-19.91,-21.39,0,*7B
1500710452.93,3743,21.81,74362.0,19.39,-17.35,-18.73,0,*71
1500710454.18,3744,21.81,74360.8,19.39,-17.03,-18.25,0,*70
1500710455.46,3745,21.81,74360.5,19.39,-15.89,-17.07,0,*7E
1500710456.68,3746,21.81,74362.3,19.45,-15.49,-16.65,0,*7F
1500710457.96,3747,21.81,74366.8,19.43,-16.17,-17.25,0,*75
1500710459.21,3748,21.81,74362.8,19.45,-15.81,-17.07,0,*70
1500710460.47,3749,21.81,74364.3,19.45,-15.81,-17.07,0,*71
1500710461.72,3750,21.81,74364.0,19.47,-16.55,-17.63,0,*73
1500710462.91,3751,21.81,74366.8,19.49,-16.89,-18.17,0,*71
1500710464.16,3752,21.81,74364.5,19.49,-16.69,-17.93,0,*7F
1500710465.39,3753,21.81,74364.5,19.49,-15.49,-16.65,0,*77
1500710466.59,3754,21.81,74364.5,19.49,-16.75,-18.07,0,*76
1500710467.79,3755,21.81,74364.3,19.53,-18.25,-19.51,0,*75
1500710469.03,3756,21.81,74364.8,19.53,-18.59,-19.81,0,*70
1500710470.26,3757,21.81,74364.8,19.49,-17.45,-18.65,0,*73
1500710471.46,3758,21.81,74364.8,19.49,-17.31,-18.49,0,*71
1500710472.68,3759,21.81,74368.5,19.49,-18.21,-19.41,0,*77
1500710473.89,3760,21.81,74364.5,19.49,-18.69,-20.05,0,*7B
1500710475.09,3761,21.81,74366.8,19.45,-18.69,-19.95,0,*75
1500710476.3,3762,21.81,74368.3,19.45,-18.73,-19.95,0,*7D
1500710477.52,3763,21.81,74368.5,19.47,-17.83,-19.13,0,*70
1500710478.78,3764,21.81,74370.5,19.43,-16.23,-17.35,0,*72
1500710479.98,3765,21.81,74368.8,19.45,-15.49,-16.59,0,*71
1500710481.21,3766,21.81,74368.0,19.45,-14.55,-15.75,0,*73
1500710482.43,3767,21.81,74368.5,19.47,-15.71,-16.93,0,*7C
1500710483.65,3768,21.81,74368.5,19.53,-16.37,-17.59,0,*70
1500710484.84,3769,21.81,74368.0,19.53,-16.97,-18.25,0,*7F
1500710486.09,3770,21.81,74368.5,19.49,-16.69,-18.01,0,*7B
1500710487.32,3771,21.81,74368.0,19.49,-17.17,-18.45,0,*72
1500710488.52,3772,21.81,74368.0,19.49,-17.31,-18.49,0,*79
1500710489.78,3773,21.81,74370.3,19.49,-17.17,-18.35,0,*77
1500710491.02,3774,21.81,74368.5,19.49,-17.93,-19.23,0,*7A
1500710492.22,3775,21.81,74364.5,19.53,-18.17,-19.47,0,*71
1500710493.41,3776,21.81,74364.8,19.49,-17.73,-19.07,0,*70
1500710494.63,3777,21.81,74368.5,19.47,-17.83,-19.13,0,*75
1500710495.88,3778,21.81,74368.3,19.47,-18.25,-19.61,0,*7C
1500710497.1,3779,21.81,74368.5,19.47,-18.07,-19.47,0,*79
1500710498.35,3780,21.81,74368.3,19.45,-17.41,-18.59,0,*7E
1500710499.57,3781,21.81,74364.0,19.45,-17.07,-18.17,0,*77
1500710500.82,3782,21.81,74370.3,19.47,-18.07,-19.57,0,*7C
1500710502.05,3783,21.81,74366.0,19.45,-18.59,-19.95,0,*7A
1500710503.3,3784,21.81,74368.3,19.45,-18.01,-19.31,0,*7E
1500710504.55,3785,21.81,74364.3,19.43,-18.17,-19.61,0,*7B
1500710505.8,3786,21.81,74368.5,19.43,-18.89,-20.25,0,*75
1500710507.0,3787,21.81,74368.0,19.41,-18.07,-19.37,0,*79
1500710508.26,3788,21.81,74368.3,19.41,-18.93,-20.35,0,*73
1500710509.52,3789,21.81,74368.5,19.39,-18.99,-20.49,0,*7C
1500710510.74,3790,21.81,74364.5,19.37,-18.83,-20.35,0,*7A
1500710511.97,3791,21.81,74370.3,19.37,-20.49,-22.07,0,*75
1500710513.19,3792,21.81,74364.8,19.33,-20.29,-21.67,0,*71
1500710514.38,3793,21.81,74366.3,19.31,-19.71,-21.13,0,*76
1500710515.6,3794,21.81,74368.0,19.27,-18.35,-19.71,0,*78
1500710516.83,3795,21.81,74368.0,19.27,-18.31,-19.71,0,*7D
1500710518.06,3796,21.81,74364.5,19.23,-19.13,-20.49,0,*7A
1500710519.28,3797,21.81,74364.5,19.21,-19.99,-21.43,0,*70
1500710520.52,3798,21.81,74366.3,19.21,-18.45,-19.81,0,*7A
1500710521.77,3799,21.81,74368.8,19.21,-18.07,-19.57,0,*76
1500710522.99,3800,21.81,74370.5,19.21,-18.21,-19.51,0,*7B
1500710524.23,3801,21.81,74364.8,19.21,-17.69,-18.93,0,*76
1500710525.48,3802,21.81,74370.8,19.21,-18.31,-19.71,0,*7A
1500710526.69,3803,21.81,74368.3,19.19,-20.15,-21.93,0,*7A
1500710527.91,3804,21.81,74368.8,19.19,-20.25,-21.57,0,*76
1500710529.15,3805,21.81,74368.0,19.17,-18.89,-20.05,0,*72
1500710530.4,3806,21.81,74364.8,19.17,-16.93,-17.97,0,*7B
1500710531.67,3807,21.81,74368.0,19.17,-16.13,-17.25,0,*7B
1500710532.9,3808,21.81,74370.3,19.19,-14.83,-15.95,0,*78
1500710534.15,3809,21.81,74368.5,19.21,-14.47,-15.67,0,*77
1500710535.34,3810,21.81,74372.5,19.23,-15.29,-16.45,0,*77
1500710536.58,3811,21.81,74368.3,19.25,-15.35,-16.45,0,*7D
1500710537.82,3812,21.81,74368.8,19.31,-16.27,-17.55,0,*7B
1500710539.04,3813,21.81,74372.0,19.31,-16.41,-17.55,0,*7A
1500710540.25,3814,21.81,74370.5,19.31,-17.11,-18.45,0,*77
1500710541.5,3815,21.81,74370.3,19.31,-17.17,-18.35,0,*77
1500710542.71,3816,21.81,74368.5,19.31,-16.51,-17.69,0,*71
1500710543.9,3817,21.81,74366.3,19.31,-16.79,-18.17,0,*7C
1500710545.11,3818,21.81,74366.3,19.31,-17.59,-18.99,0,*76
1500710546.31,3819,21.81,74368.8,19.27,-17.87,-19.17,0,*74
1500710547.5,3820,21.81,74364.5,19.31,-16.97,-18.21,0,*7D
1500710548.7,3821,21.81,74364.8,19.33,-16.97,-18.21,0,*7E
1500710549.94,3822,21.81,74366.8,19.31,-17.11,-18.35,0,*75
1500710551.15,3823,21.81,74366.3,19.31,-17.31,-18.59,0,*7C
1500710552.36,3824,21.81,74364.5,19.31,-17.93,-19.37,0,*7A
1500710553.6,3825,21.81,74364.5,19.27,-19.27,-20.63,0,*76
1500710554.84,3826,21.81,74366.0,19.27,-19.41,-20.79,0,*7E
1500710556.08,3827,21.81,74364.3,19.23,-19.27,-20.59,0,*79
1500710557.28,3828,21.81,74364.3,19.23,-19.51,-20.73,0,*7F
1500710558.52,3829,21.81,74362.3,19.21,-18.59,-19.95,0,*77
1500710559.8,3830,21.81,74360.8,19.21,-18.93,-20.19,0,*77
1500710560.99,3831,21.81,74352.5,19.19,-18.69,-19.99,0,*7A
1500710562.24,3832,21.81,74358.0,19.21,-17.97,-19.13,0,*7E
1500710563.46,3833,21.81,74358.3,19.19,-17.11,-18.49,0,*74
1500710564.69,3834,21.81,74356.8,19.21,-16.55,-17.87,0,*74
1500710565.93,3835,21.81,74360.3,19.19,-17.21,-18.55,0,*7C
1500710567.18,3836,21.81,74364.5,19.21,-18.31,-19.71,0,*7D
1500710568.4,3837,21.81,74366.3,19.17,-18.11,-19.37,0,*79
1500710569.62,3838,21.81,74364.5,19.17,-18.17,-19.51,0,*70
1500710570.83,3839,21.81,74364.3,19.15,-17.63,-18.99,0,*7A
1500710572.1,3840,21.81,74364.5,19.17,-17.41,-18.59,0,*7A
1500710573.34,3841,21.81,74366.0,19.17,-16.93,-18.31,0,*7B
1500710574.62,3842,21.81,74360.5,19.17,-16.17,-17.41,0,*7C
1500710575.87,3843,21.81,74362.0,19.19,-16.09,-17.21,0,*7A
1500710577.09,3844,21.81,74362.8,19.21,-16.55,-17.73,0,*78
1500710578.33,3845,21.81,74364.8,19.21,-16.13,-17.31,0,*7D
1500710579.55,3846,21.81,74366.0,19.23,-15.15,-16.27,0,*7F
1500710580.82,3847,21.81,74366.8,19.25,-16.51,-17.63,0,*7A
1500710582.08,3848,21.81,74366.8,19.25,-15.43,-16.51,0,*75
1500710583.34,3849,21.81,74364.3,19.27,-14.83,-15.81,0,*75
1500710584.56,3850,21.81,74364.8,19.35,-14.69,-15.75,0,*71
1500710585.76,3851,21.81,74366.5,19.33,-15.63,-16.97,0,*72
1500710587.01,3852,21.81,74364.0,19.35,-15.57,-16.75,0,*7C
1500710588.26,3853,21.81,74364.3,19.33,-16.13,-17.25,0,*7C
1500710589.51,3854,21.81,74366.3,19.35,-17.07,-18.25,0,*76
1500710590.78,3855,21.81,74370.0,19.35,-17.21,-18.35,0,*72
1500710592.06,3856,21.81,74368.8,19.35,-15.89,-17.07,0,*7F
1500710593.29,3857,21.81,74368.0,19.35,-14.61,-15.71,0,*7A
1500710594.54,3858,21.81,74366.5,19.39,-14.55,-15.67,0,*79
1500710595.8,3859,21.81,74370.0,19.39,-13.97,-15.15,0,*74
1500710597.08,3860,21.81,74368.8,19.43,-14.05,-15.21,0,*78
1500710598.31,3861,21.81,74370.3,19.45,-13.87,-14.89,0,*71
1500710599.56,3862,21.81,74366.3,19.47,-13.97,-15.11,0,*71
1500710600.78,3863,21.81,74368.5,19.53,-13.73,-14.75,0,*7C
1500710602.0,3864,21.81,74368.0,19.53,-12.93,-14.05,0,*73
1500710603.2,3865,21.81,74368.0,19.57,-13.15,-14.15,0,*78
1500710604.44,3866,21.81,74366.0,19.59,-13.65,-14.75,0,*74
1500710605.7,3867,21.81,74368.0,19.63,-13.79,-14.93,0,*79
1500710606.95,3868,21.81,74370.3,19.63,-14.43,-15.63,0,*76
1500710608.17,3869,21.81,74366.5,19.63,-15.53,-16.79,0,*7F
1500710609.43,3870,21.81,74368.8,19.65,-14.51,-15.63,0,*7A
1500710610.67,3871,21.81,74370.5,19.67,-15.01,-16.17,0,*7D
1500710611.89,3872,21.81,74370.3,19.67,-14.97,-16.03,0,*75
1500710613.17,3873,21.81,74368.0,19.69,-13.97,-15.21,0,*7E
1500710614.42,3874,21.81,74368.0,19.71,-16.23,-17.45,0,*7A
1500710615.66,3875,21.81,74366.8,19.69,-15.07,-16.27,0,*72
1500710616.88,3876,21.81,74370.3,19.69,-15.25,-16.45,0,*75
1500710618.15,3877,21.81,74370.3,19.69,-15.81,-17.17,0,*7C
1500710619.42,3878,21.81,74372.5,19.69,-14.97,-16.09,0,*7B
1500710620.67,3879,21.81,74368.5,19.71,-14.75,-15.89,0,*74
1500710621.94,3880,21.81,74368.0,19.77,-16.27,-17.63,0,*77
1500710623.14,3881,21.81,74368.0,19.75,-16.59,-17.83,0,*73
1500710624.36,3882,21.81,74370.3,19.71,-16.97,-18.35,0,*74
1500710625.59,3883,21.81,74370.3,19.75,-16.13,-17.49,0,*79
1500710626.81,3884,21.81,74368.8,19.75,-15.15,-16.31,0,*75
1500710628.05,3885,21.81,74366.5,19.75,-14.97,-16.13,0,*7F
1500710629.28,3886,21.81,74368.8,19.77,-14.29,-15.29,0,*71
1500710630.53,3887,21.81,74370.5,19.81,-13.43,-14.43,0,*7F
1500710631.75,3888,21.81,74370.3,19.81,-13.65,-14.69,0,*7C
1500710632.99,3889,21.81,74370.3,19.83,-14.75,-15.89,0,*76
1500710634.19,3890,21.81,74370.3,19.83,-15.49,-16.55,0,*72
1500710635.39,3891,21.81,74370.8,19.83,-15.63,-16.83,0,*70
1500710636.63,3892,21.88,74372.0,19.83,-16.27,-17.55,0,*7A
1500710637.85,3893,21.81,74372.3,19.85,-16.37,-17.49,0,*71
1500710639.11,3894,21.81,74370.5,19.85,-16.13,-17.35,0,*7B
1500710640.33,3895,21.81,74368.8,19.85,-15.75,-16.93,0,*74
1500710641.54,3896,21.81,74368.5,19.87,-15.81,-16.97,0,*7A
1500710642.79,3897,21.81,74370.8,19.83,-16.09,-17.17,0,*75
1500710644.02,3898,21.81,74370.0,19.83,-15.63,-16.69,0,*7D
1500710645.24,3899,21.81,74366.8,19.85,-15.63,-16.79,0,*7B
1500710646.49,3900,21.81,74368.5,19.85,-14.83,-15.99,0,*78
1500710647.68,3901,21.81,74368.5,19.87,-13.93,-15.07,0,*7A
1500710648.89,3902,21.81,74364.5,19.87,-14.11,-15.15,0,*77
1500710650.11,3903,21.81,74364.8,19.91,-14.19,-15.35,0,*7B
1500710651.34,3904,21.81,74370.3,19.91,-14.51,-15.63,0,*73
1500710652.54,3905,21.81,74370.0,19.91,-14.37,-15.63,0,*72
1500710653.82,3906,21.81,74370.5,19.93,-14.47,-15.57,0,*73
1500710655.07,3907,21.81,74368.3,19.95,-14.75,-15.89,0,*76
1500710656.29,3908,21.81,74368.0,19.95,-14.29,-15.35,0,*77
1500710657.54,3909,21.81,74368.5,19.95,-14.55,-15.89,0,*7A
1500710658.77,3910,21.88,74372.5,20.01,-14.37,-15.53,0,*76
1500710660.03,3911,21.81,74366.8,20.01,-14.33,-15.39,0,*7F
1500710661.26,3912,21.81,74368.3,20.03,-14.51,-15.63,0,*75
1500710662.54,3913,21.81,74366.3,20.05,-14.83,-15.85,0,*75
1500710663.78,3914,21.81,74368.5,20.05,-14.69,-15.89,0,*7A
1500710664.97,3915,21.81,74370.5,20.03,-14.89,-15.99,0,*72
1500710666.2,3916,21.81,74368.8,20.05,-14.61,-15.75,0,*73
1500710667.43,3917,21.81,74366.0,20.07,-15.39,-16.59,0,*71
1500710668.67,3918,21.81,74368.0,20.09,-16.51,-18.21,0,*7C
1500710669.9,3919,21.81,74368.5,20.07,-17.17,-18.41,0,*76
1500710671.17,3920,21.81,74364.0,20.05,-18.59,-19.81,0,*76
1500710672.39,3921,21.81,74360.8,20.03,-17.93,-19.13,0,*73
1500710673.62,3922,21.81,74356.3,19.99,-20.63,-21.97,0,*75
1500710674.81,3923,21.81,74360.0,19.95,-17.49,-18.69,0,*7F
1500710676.06,3924,21.81,74360.5,19.93,-16.51,-17.69,0,*79
1500710677.31,3925,21.81,74362.0,19.95,-16.65,-17.97,0,*78
1500710678.56,3926,21.81,74360.0,19.93,-17.41,-18.83,0,*70
1500710679.8,3927,21.81,74360.8,19.93,-17.21,-18.25,0,*7B
1500710681.02,3928,21.81,74366.3,19.91,-15.81,-16.93,0,*7D
1500710682.26,3929,21.81,74368.3,19.93,-15.15,-16.23,0,*78
1500710683.47,3930,21.81,74364.0,19.95,-14.29,-15.29,0,*71
1500710684.69,3931,21.81,74364.3,19.95,-13.61,-14.69,0,*7E
1500710685.94,3932,21.81,74364.5,19.99,-14.79,-15.85,0,*7C
1500710687.19,3933,21.81,74368.0,20.01,-14.65,-15.81,0,*7F
1500710688.46,3934,21.81,74368.0,20.01,-15.89,-17.17,0,*76
1500710689.69,3935,21.81,74368.0,20.01,-16.89,-18.07,0,*7A
1500710690.96,3936,21.81,74370.3,20.01,-15.89,-17.03,0,*71
1500710692.19,3937,21.81,74366.3,20.01,-14.89,-15.95,0,*7C
1500710693.38,3938,21.81,74366.0,20.03,-14.89,-15.99,0,*7D
1500710694.65,3939,21.81,74364.8,20.05,-17.55,-18.89,0,*74
1500710695.91,3940,21.81,74368.0,20.03,-18.31,-19.57,0,*73
1500710697.14,3941,21.81,74364.3,19.99,-17.03,-18.21,0,*75
1500710698.36,3942,21.81,74362.8,19.99,-15.11,-16.27,0,*7F
1500710699.58,3943,21.81,74364.3,20.01,-14.89,-15.95,0,*7F
1500710700.84,3944,21.81,74362.5,20.03,-14.47,-15.89,0,*75
1500710702.12,3945,21.81,74362.8,20.05,-16.09,-17.11,0,*79
1500710703.38,3946,21.81,74364.3,20.05,-15.21,-16.23,0,*73
1500710704.61,3947,21.81,74366.5,20.05,-14.89,-15.95,0,*7F
1500710705.83,3948,21.81,74366.5,20.05,-14.61,-15.75,0,*78
1500710707.08,3949,21.81,74366.0,20.09,-15.49,-16.65,0,*7C
1500710708.29,3950,21.81,74366.5,20.07,-17.63,-18.99,0,*7D
1500710709.51,3951,21.88,74368.0,20.03,-18.59,-19.75,0,*7D
1500710710.76,3952,21.81,74368.0,20.03,-18.01,-19.27,0,*74
1500710712.01,3953,21.81,74368.5,20.01,-18.17,-19.27,0,*70
1500710713.21,3954,21.81,74370.0,19.99,-17.35,-18.69,0,*78
1500710714.42,3955,21.81,74370.0,19.99,-18.69,-20.05,0,*7E
1500710715.64,3956,21.81,74366.8,19.95,-18.55,-19.75,0,*73
1500710716.86,3957,21.81,74364.5,19.93,-18.17,-19.47,0,*73
1500710718.08,3958,21.81,74366.8,19.89,-18.49,-19.75,0,*7D
1500710719.3,3959,21.81,74366.3,19.89,-18.11,-19.47,0,*70
1500710720.55,3960,21.81,74366.8,19.89,-19.95,-21.57,0,*7D
1500710721.79,3961,21.81,74364.8,19.85,-19.99,-21.53,0,*78
1500710723.04,3962,21.81,74366.3,19.81,-19.85,-21.09,0,*7D
1500710724.25,3963,21.81,74364.5,19.79,-19.85,-21.13,0,*70
1500710725.47,3964,21.81,74364.0,19.77,-17.69,-18.99,0,*7D
1500710726.71,3965,21.88,74366.8,19.77,-17.21,-18.41,0,*75
1500710727.95,3966,21.81,74364.3,19.77,-17.55,-18.99,0,*70
1500710729.15,3967,21.81,74366.0,19.75,-19.03,-20.43,0,*72
1500710730.37,3968,21.88,74368.8,19.71,-18.17,-19.41,0,*75
1500710731.6,3969,21.88,74368.3,19.71,-17.21,-18.49,0,*77
1500710732.84,3970,21.81,74364.8,19.71,-17.59,-18.89,0,*7C
1500710734.07,3971,21.81,74364.3,19.71,-16.65,-17.87,0,*72
1500710735.33,3972,21.81,74366.8,19.71,-16.69,-17.97,0,*7C
1500710736.55,3973,21.81,74364.8,19.75,-16.03,-17.41,0,*7E
1500710737.8,3974,21.81,74366.8,19.71,-16.09,-17.21,0,*71
1500710739.02,3975,21.81,74366.8,19.75,-15.85,-16.93,0,*7B
1500710740.22,3976,21.81,74364.3,19.75,-15.75,-16.89,0,*7C
1500710741.41,3977,21.81,74366.3,19.75,-15.75,-16.93,0,*76
1500710742.66,3978,21.81,74366.0,19.77,-16.27,-17.49,0,*79
1500710743.88,3979,21.81,74364.5,19.79,-16.59,-17.79,0,*7C
1500710745.07,3980,21.88,74364.3,19.79,-16.55,-17.73,0,*7C
1500710746.26,3981,21.81,74362.0,19.79,-16.45,-17.73,0,*7C
1500710747.48,3982,21.88,74364.8,19.79,-17.35,-18.55,0,*72
1500710748.73,3983,21.88,74366.8,19.77,-18.31,-19.75,0,*75
1500710749.98,3984,21.81,74366.0,19.77,-18.41,-19.65,0,*74
1500710751.24,3985,21.81,74364.3,19.77,-16.31,-17.55,0,*71
1500710752.52,3986,21.88,74366.8,19.77,-16.65,-17.93,0,*79
1500710753.74,3987,21.81,74364.0,19.77,-16.75,-18.11,0,*7C
1500710754.98,3988,21.81,74364.3,19.77,-17.35,-18.59,0,*7A
1500710756.19,3989,21.81,74368.0,19.77,-17.69,-18.99,0,*7E
1500710757.41,3990,21.81,74368.5,19.77,-17.49,-18.83,0,*7F
1500710758.6,3991,21.81,74366.8,19.75,-16.89,-18.25,0,*7D
1500710759.82,3992,21.81,74368.5,19.71,-17.21,-18.49,0,*73
1500710761.05,3993,21.81,74364.3,19.71,-17.25,-18.49,0,*76
1500710762.26,3994,21.81,74366.8,19.71,-17.69,-18.89,0,*75
1500710763.46,3995,21.81,74368.0,19.71,-17.31,-18.45,0,*79
1500710764.68,3996,21.81,74370.0,19.71,-16.65,-17.73,0,*70
1500710765.93,3997,21.81,74370.5,19.75,-16.13,-17.17,0,*76
1500710767.18,3998,21.81,74370.8,19.75,-15.89,-17.21,0,*7C
1500710768.39,3999,21.81,74370.0,19.71,-16.41,-17.69,0,*72
1500710769.64,4000,21.88,74370.5,19.75,-16.13,-17.41,0,*75
1500710770.87,4001,21.81,74368.5,19.77,-17.79,-19.03,0,*73
1500710772.12,4002,21.81,74370.5,19.75,-17.21,-18.55,0,*7D
1500710773.32,4003,21.81,74366.3,19.71,-16.75,-18.07,0,*7F
1500710774.53,4004,21.88,74368.0,19.75,-17.79,-19.03,0,*74
1500710775.76,4005,21.88,74372.0,19.75,-17.35,-18.55,0,*7F
1500710776.96,4006,21.88,74368.8,19.71,-18.17,-19.37,0,*72
1500710778.19,4007,21.88,74372.0,19.71,-16.65,-17.87,0,*7D
1500710779.44,4008,21.88,74372.8,19.71,-16.51,-17.59,0,*76
1500710780.66,4009,21.81,74368.8,19.75,-15.85,-16.93,0,*7E
1500710781.88,4010,21.81,74368.0,19.71,-16.65,-17.73,0,*70
1500710783.11,4011,21.88,74368.5,19.75,-15.99,-17.07,0,*76
1500710784.33,4012,21.88,74372.0,19.77,-15.71,-16.79,0,*79
1500710785.57,4013,21.88,74368.3,19.79,-14.93,-15.85,0,*7B
1500710786.79,4014,21.88,74368.3,19.79,-13.97,-15.07,0,*75
1500710787.99,4015,21.88,74368.0,19.83,-13.65,-14.65,0,*79
1500710789.24,4016,21.81,74370.3,19.85,-13.55,-14.75,0,*7E
1500710790.46,4017,21.81,74364.3,19.87,-13.93,-14.97,0,*7B
1500710791.69,4018,21.88,74370.3,19.89,-14.29,-15.53,0,*75
1500710792.92,4019,21.81,74368.5,19.91,-14.19,-15.39,0,*72
1500710794.15,4020,21.88,74368.5,19.95,-13.43,-14.55,0,*7F
1500710795.37,4021,21.88,74368.3,19.95,-13.29,-14.33,0,*72
1500710796.6,4022,21.88,74368.3,20.01,-14.11,-15.25,0,*7C
1500710797.85,4023,21.81,74370.0,20.01,-15.11,-16.27,0,*7D
1500710799.12,4024,21.88,74368.8,20.01,-16.23,-17.55,0,*7C
1500710800.34,4025,21.88,74370.5,20.01,-15.67,-16.83,0,*74
1500710801.56,4026,21.81,74366.0,20.03,-15.49,-16.65,0,*71
1500710802.81,4027,21.81,74368.0,20.03,-16.27,-17.59,0,*75
1500710804.02,4028,21.81,74368.8,20.05,-16.93,-18.25,0,*77
1500710805.29,4029,21.88,74368.5,20.01,-18.01,-19.23,0,*70
1500710806.54,4030,21.88,74368.5,20.01,-17.55,-18.73,0,*72
1500710807.75,4031,21.81,74366.0,19.99,-17.35,-18.69,0,*75
1500710808.95,4032,21.88,74368.0,19.99,-18.79,-20.09,0,*7C
1500710810.15,4033,21.88,74366.8,19.95,-19.07,-20.43,0,*77
1500710811.41,4034,21.81,74366.3,19.91,-18.93,-20.19,0,*77
1500710812.68,4035,21.88,74368.3,19.89,-18.93,-20.19,0,*7F
1500710813.91,4036,21.88,74370.8,19.91,-18.21,-19.57,0,*7C
1500710815.16,4037,21.81,74368.0,19.85,-18.41,-19.65,0,*7F
1500710816.38,4038,21.81,74368.0,19.85,-18.11,-19.37,0,*72
1500710817.63,4039,21.88,74370.3,19.85,-18.31,-19.75,0,*77
1500710818.89,4040,21.88,74368.5,19.81,-18.93,-20.09,0,*74
1500710820.14,4041,21.81,74368.5,19.81,-19.41,-20.69,0,*7D
1500710821.32,4042,21.88,74372.3,19.79,-17.73,-18.83,0,*79
1500710822.57,4043,21.81,74368.3,19.77,-17.55,-18.69,0,*76
1500710823.79,4044,21.88,74370.8,19.79,-15.53,-16.69,0,*75
1500710825.03,4045,21.88,74368.3,19.79,-14.93,-16.09,0,*7F
1500710826.29,4046,21.81,74370.0,19.81,-14.33,-15.39,0,*71
1500710827.52,4047,21.88,74374.8,19.83,-14.01,-15.07,0,*7E
1500710828.77,4048,21.88,74372.0,19.89,-13.65,-14.79,0,*76
1500710829.98,4049,21.88,74370.3,19.91,-13.65,-14.75,0,*72
1500710831.23,4050,21.88,74374.0,19.91,-13.79,-15.01,0,*75
1500710832.47,4051,21.88,74372.3,19.95,-15.85,-17.21,0,*75
1500710833.68,4052,21.88,74372.5,19.95,-16.59,-17.87,0,*78
1500710834.92,4053,21.88,74372.3,19.95,-15.35,-16.51,0,*7A
1500710836.14,4054,21.88,74372.8,19.93,-15.71,-16.93,0,*75
1500710837.32,4055,21.88,74374.5,19.95,-16.89,-18.25,0,*75
1500710838.57,4056,21.88,74372.5,19.93,-17.11,-18.41,0,*72
1500710839.82,4057,21.81,74368.0,19.93,-16.17,-16.97,0,*71
1500710841.03,4058,21.88,74372.0,19.95,-14.69,-15.85,0,*73
1500710842.25,4059,21.88,74368.8,19.99,-15.11,-16.31,0,*7C
1500710843.45,4060,21.88,74370.3,19.99,-16.41,-17.73,0,*77
1500710844.66,4061,21.88,74370.8,19.99,-18.41,-19.71,0,*74
1500710845.85,4062,21.81,74366.8,19.95,-18.41,-19.51,0,*79
1500710847.1,4063,21.88,74368.0,19.93,-17.21,-18.41,0,*77
1500710848.34,4064,21.88,74368.5,19.93,-15.99,-17.21,0,*78
1500710849.56,4065,21.81,74366.8,19.95,-16.03,-17.25,0,*7B
1500710850.8,4066,21.88,74370.0,19.93,-15.57,-16.79,0,*74
1500710852.03,4067,21.88,74370.3,19.95,-14.55,-15.63,0,*78
1500710853.26,4068,21.81,74366.8,19.99,-13.69,-14.83,0,*7C
1500710854.51,4069,21.88,74368.0,19.99,-14.55,-15.81,0,*76
1500710855.73,4070,21.88,74364.0,20.03,-15.07,-16.23,0,*7A
1500710857.01,4071,21.88,74368.0,20.05,-14.93,-16.17,0,*76
1500710858.23,4072,21.88,74366.8,20.05,-13.73,-14.89,0,*79
1500710859.51,4073,21.88,74364.5,20.09,-13.33,-14.47,0,*72
1500710860.75,4074,21.88,74366.8,20.09,-12.89,-13.97,0,*7F
1500710861.98,4075,21.88,74364.0,20.13,-12.29,-13.43,0,*76
1500710863.19,4076,21.88,74366.8,20.17,-12.03,-13.15,0,*7A
1500710864.41,4077,21.88,74366.8,20.23,-12.61,-13.73,0,*78
1500710865.65,4078,21.88,74364.0,20.23,-12.15,-13.29,0,*7B
1500710866.9,4079,21.88,74366.8,20.27,-12.15,-13.29,0,*7E
1500710868.09,4080,21.88,74362.5,20.29,-12.39,-13.47,0,*70
1500710869.32,4081,21.88,74362.3,20.33,-12.89,-14.01,0,*74
1500710870.54,4082,21.88,74364.3,20.35,-12.43,-13.55,0,*71
1500710871.74,4083,21.88,74366.5,20.37,-13.07,-14.23,0,*75
1500710872.96,4084,21.88,74364.0,20.37,-13.65,-14.79,0,*79
1500710874.22,4085,21.88,74366.3,20.39,-13.83,-15.07,0,*76
1500710875.46,4086,21.88,74364.3,20.39,-13.37,-14.69,0,*73
1500710876.74,4087,21.88,74370.0,20.43,-13.33,-14.51,0,*70
1500710877.96,4088,21.88,74364.3,20.45,-13.15,-14.47,0,*7A
1500710879.2,4089,21.88,74366.3,20.47,-12.43,-13.87,0,*70
1500710880.42,4090,21.88,74366.8,20.49,-12.71,-14.23,0,*7E
1500710881.63,4091,21.88,74370.0,20.51,-12.29,-13.93,0,*77
1500710882.89,4092,21.88,74368.0,20.51,-14.05,-15.63,0,*75
1500710884.17,4093,21.88,74370.8,20.55,-13.97,-15.43,0,*7E
1500710885.43,4094,21.88,74370.3,20.51,-14.93,-16.69,0,*75
1500710886.68,4095,21.88,74370.0,20.51,-15.95,-17.45,0,*7C
1500710887.92,4096,21.81,74370.0,20.51,-15.63,-17.11,0,*77
1500710889.16,4097,21.88,74368.5,20.47,-14.11,-15.49,0,*7A
1500710890.41,4098,21.88,74372.5,20.51,-14.05,-15.67,0,*7B
1500710891.68,4099,21.88,74374.5,20.51,-17.17,-18.93,0,*7C
1500710892.9,4100,21.88,74374.0,20.47,-18.17,-19.75,0,*7C
1500710894.18,4101,21.88,74370.3,20.47,-15.35,-17.03,0,*7F
1500710895.41,4102,21.88,74372.0,20.45,-14.23,-16.17,0,*7C
1500710896.64,4103,21.88,74372.5,20.47,-13.43,-15.11,0,*7B
1500710897.88,4104,21.88,74374.5,20.51,-13.01,-14.89,0,*7D
1500710899.13,4105,21.88,74372.8,20.47,-13.15,-15.01,0,*7F
1500710900.32,4106,21.88,74376.0,20.49,-13.11,-15.11,0,*77
1500710901.55,4107,21.88,74374.3,20.53,-12.47,-14.51,0,*7A